Regional Weather Roundup
Issued by NWS Newport/Morehead, NC

Current Version | Previous Version | Text Only | Print | Product List | Glossary On
Versions: 1 2 3 4 5 6 7 8 9 10 11 12 13 14 15 16 17 18 19 20 21 22 23 24 25 26 27 28 29 30 31 32 33 34 35 36 37 38 39 40 41 42 43 44 45 46 47 48 49 50
000
ASUS42 KMHX 080225
RWRMHX
WEATHER ROUNDUP FOR EASTERN NORTH CAROLINA
NATIONAL WEATHER SERVICE NEWPORT/MOREHEAD CITY NC
1000 PM EDT TUE JUL 07 2015

NOTE: "FAIR" INDICATES FEW OR NO CLOUDS BELOW 12,000 FEET
WITH NO SIGNIFICANT WEATHER AND/OR OBSTRUCTIONS TO VISIBILITY

NCZ015>017-031-032-045>047-102-103-080300-
NORTH COAST

CITY           SKY/WX    TMP DP  RH WIND       PRES   REMARKS
EDENTON          N/A     81  73  77 SW12G17   30.10R
ELIZABETH CITY CLEAR     82  74  76 S10       30.09R
KITTY HAWK     CLEAR     81  73  76 SW6       30.09R
MANTEO         CLEAR     80  74  79 SW12      30.12R

$$

NCZ045>047-081-094-103-104-080300-
CENTRAL COAST

CITY           SKY/WX    TMP DP  RH WIND       PRES   REMARKS
FRISCO         CLEAR     78  75  90 SW10      30.13R
SWANQUARTER      N/A     82 N/A N/A SW14G22   30.09R

$$

NCZ095-097-098-100-101-080300-
SOUTHERN COAST

CITY           SKY/WX    TMP DP  RH WIND       PRES   REMARKS
BEAUFORT       CLEAR     80  76  87 SW14      30.14R
CEDAR ISLAND     N/A     79 N/A N/A S9        30.18R
JACKSONVILLE   CLEAR     78  73  84 SW5       30.13R
PINEY ISLAND   CLEAR    N/A N/A N/A S8        30.13R
WILMINGTON     CLEAR     80  73  79 SW9       30.14R


$$

NCZ011>013-027>030-043-044-078>080-089-090>093-098-080300-
COASTAL PLAIN

CITY           SKY/WX    TMP DP  RH WIND       PRES   REMARKS
AHOSKIE        CLEAR     78  73  84 S3        30.09R
CLINTON        CLEAR     79  74  84 S3        30.13R
ELIZABETHTOWN  CLEAR     79  74  84 S3        30.13R
GOLDSBORO      CLEAR     81  72  74 S7        30.09R
GREENVILLE     PTCLDY    82  73  74 SW9       30.12R
HAVELOCK       CLEAR     79  73  82 SW7       30.14R
KENANSVILLE    CLEAR     78  71  77 CALM      30.14R
KINSTON        CLEAR     81  70  69 S6        30.12R
NEW BERN       PTCLDY    78  73  84 S7        30.14R
RICHLANDS      CLEAR     75  68  78 SW5       30.14R
ROCKY MOUNT    CLEAR     82  72  71 S9        30.09R
WASHINGTON     PTCLDY    79  73  82 S5        30.12R
WHITEVILLE     CLEAR     78  74  86 CALM      30.13R

$$

AMZ130-135-150-152-154-156-158-170-250-252-270-ANZ085-086-088-633-658-670-080300-
MARINE OBSERVATIONS

STATION/POSITION TIME  TEMP    WIND        PRES    WAVE   SWELL
                       AIR SEA DIR/SP/G            HT/PER HT/PER
                 (UTC) (F)     (DEG/KT/KT) (MB)    (FT/S) (FT/S)
CHESAPEAKE LIGHT 0200   81     200/ 19/ 19 1018.5
64 E VA BEACH    0150   79 77  210/ 16/ 17 1018.4    4/ 4   2/ 9
DUCK             0200   83 67  210/ 13/ 17   N/A
2 E DUCK         0111      77                N/A     2/ 9   2/11
OREGON INLET     0200   82 85  210/ 16/ 18 1019.5
13E OREGON INLT  0200      78                N/A     3/ 4   2/11
HATTERAS CG      0200   80 82  210/  9/ 14 1020.1
DIAMOND BUOY     0150   82 83  220/ 17/ 19 1020.0    3/ 9   2/ 9
CAPE LOOKOUT     0200   80     220/ 11/ 16 1020.5
BEAUFORT LAB     0200   80 83  220/  8/ 14 1019.9
30 SE NEW RVR IN NOT AVBL
27 SE WRIGHTSVLE 0200      80  220/ 12/ 14   N/A
5 SE WRIGHTSVLE  0108   80 80  210/ 12/ 16 1020.2
225 S CAPE HAT   0150   82 81  210/  8/ 10 1023.1    4/ 8   3/ 8
41 SE CHARLESTON 0150   83 83  200/ 14/ 16 1020.2    3/ 8   2/ 8

$$



USA.gov is the U.S. government's official web portal to all federal, state and local government web resources and services.